• Em Portugal
  • Lista de países
  • Para 7 dias
  • Temperatura da água
  • Mapas de satélite
  • Mapa do tempo
  • Widgets de tempo
  • user-avatar
    Iniciar Sessão

    Previsão horária em Taungdżi

    Hoje, 19 Fevereiro, Segunda-feira

    Tempo Temperatura Precipitação Vento Pressão Humidade
    00:00 +15°C° 0 mm 1 m/s 649 mmHg 35%
    01:00 +15°C° 0 mm 1 m/s 648 mmHg 35%
    02:00 +14°C° 0 mm 1 m/s 648 mmHg 35%
    03:00 +14°C° 0 mm 1 m/s 648 mmHg 36%
    04:00 +14°C° 0 mm 1 m/s 648 mmHg 36%
    05:00 +13°C° 0 mm 1 m/s 648 mmHg 37%
    06:00 +13°C° 0 mm 1 m/s 648 mmHg 36%
    07:00 +18°C° 0 mm 1 m/s 650 mmHg 32%
    08:00 +21°C° 0 mm 1 m/s 651 mmHg 28%
    09:00 +24°C° 0 mm 1 m/s 652 mmHg 24%
    10:00 +26°C° 0 mm 1 m/s 652 mmHg 21%
    11:00 +27°C° 0 mm 2 m/s 652 mmHg 18%
    12:00 +29°C° 0 mm 2 m/s 652 mmHg 15%
    13:00 +28°C° 0 mm 3 m/s 651 mmHg 15%
    14:00 +28°C° 0 mm 3 m/s 651 mmHg 15%
    15:00 +28°C° 0 mm 3 m/s 650 mmHg 15%
    16:00 +25°C° 0 mm 2 m/s 650 mmHg 20%
    17:00 +23°C° 0 mm 2 m/s 649 mmHg 24%
    18:00 +20°C° 0 mm 1 m/s 648 mmHg 29%
    19:00 +19°C° 0 mm 1 m/s 648 mmHg 30%
    20:00 +18°C° 0 mm 1 m/s 648 mmHg 31%
    21:00 +16°C° 0 mm 1 m/s 649 mmHg 32%
    22:00 +15°C° 0 mm 1 m/s 649 mmHg 32%
    23:00 +15°C° 0 mm 1 m/s 649 mmHg 32%

    Amanhã, 20 Fevereiro, Terça-feira

    Tempo Temperatura Precipitação Vento Pressão Humidade
    00:00 +15°C° 0 mm 1 m/s 648 mmHg 32%
    01:00 +14°C° 0 mm 1 m/s 648 mmHg 31%
    02:00 +14°C° 0 mm 1 m/s 648 mmHg 31%
    03:00 +14°C° 0 mm 1 m/s 648 mmHg 30%
    04:00 +13°C° 0 mm 1 m/s 648 mmHg 30%
    05:00 +13°C° 0 mm 1 m/s 648 mmHg 30%
    06:00 +13°C° 0 mm 1 m/s 648 mmHg 30%
    07:00 +16°C° 0 mm 0 m/s 650 mmHg 27%
    08:00 +20°C° 0 mm 0 m/s 651 mmHg 24%
    09:00 +24°C° 0 mm 0 m/s 653 mmHg 21%
    10:00 +27°C° 0 mm 1 m/s 653 mmHg 18%
    11:00 +28°C° 0 mm 1 m/s 652 mmHg 15%
    12:00 +30°C° 0 mm 2 m/s 652 mmHg 13%
    13:00 +29°C° 0 mm 2 m/s 651 mmHg 13%
    14:00 +29°C° 0 mm 2 m/s 651 mmHg 13%
    15:00 +29°C° 0 mm 3 m/s 650 mmHg 13%
    16:00 +26°C° 0 mm 2 m/s 649 mmHg 17%
    17:00 +23°C° 0 mm 2 m/s 648 mmHg 20%
    18:00 +20°C° 0 mm 1 m/s 647 mmHg 24%
    19:00 +19°C° 0 mm 1 m/s 648 mmHg 25%
    20:00 +18°C° 0 mm 1 m/s 648 mmHg 25%
    21:00 +16°C° 0 mm 1 m/s 648 mmHg 26%
    22:00 +16°C° 0 mm 1 m/s 648 mmHg 26%
    23:00 +15°C° 0 mm 1 m/s 647 mmHg 26%

    Depois de amanhã, 21 Fevereiro, Quarta-feira

    Tempo Temperatura Precipitação Vento Pressão Humidade
    00:00 +15°C° 0 mm 1 m/s 647 mmHg 25%
    01:00 +14°C° 0 mm 1 m/s 647 mmHg 25%
    02:00 +14°C° 0 mm 1 m/s 646 mmHg 25%
    03:00 +14°C° 0 mm 1 m/s 646 mmHg 25%
    04:00 +14°C° 0 mm 1 m/s 646 mmHg 25%
    05:00 +13°C° 0 mm 1 m/s 646 mmHg 25%
    06:00 +13°C° 0 mm 1 m/s 646 mmHg 25%
    07:00 +18°C° 0 mm 1 m/s 648 mmHg 23%
    08:00 +20°C° 0 mm 0 m/s 650 mmHg 21%
    09:00 +24°C° 0 mm 0 m/s 652 mmHg 18%
    10:00 +27°C° 0 mm 1 m/s 651 mmHg 17%
    11:00 +28°C° 0 mm 2 m/s 651 mmHg 16%
    12:00 +29°C° 0 mm 3 m/s 651 mmHg 14%
    13:00 +29°C° 0 mm 3 m/s 650 mmHg 15%
    14:00 +29°C° 0 mm 3 m/s 649 mmHg 15%
    15:00 +29°C° 0 mm 4 m/s 649 mmHg 15%
    16:00 +26°C° 0 mm 3 m/s 648 mmHg 19%
    17:00 +23°C° 0 mm 2 m/s 647 mmHg 23%
    18:00 +20°C° 0 mm 1 m/s 647 mmHg 27%
    19:00 +19°C° 0 mm 1 m/s 647 mmHg 28%
    20:00 +18°C° 0 mm 1 m/s 647 mmHg 29%
    21:00 +16°C° 0 mm 1 m/s 647 mmHg 30%
    22:00 +16°C° 0 mm 1 m/s 647 mmHg 30%
    23:00 +15°C° 0 mm 1 m/s 647 mmHg 30%

    22 Fevereiro, Quinta-feira

    Tempo Temperatura Precipitação Vento Pressão Humidade
    00:00 +15°C° 0 mm 1 m/s 647 mmHg 29%
    01:00 +15°C° 0 mm 1 m/s 646 mmHg 29%
    02:00 +14°C° 0 mm 1 m/s 646 mmHg 28%
    03:00 +14°C° 0 mm 1 m/s 646 mmHg 27%
    04:00 +14°C° 0 mm 1 m/s 646 mmHg 27%
    05:00 +14°C° 0 mm 1 m/s 646 mmHg 26%
    06:00 +13°C° 0 mm 1 m/s 647 mmHg 25%
    07:00 +16°C° 0 mm 0 m/s 649 mmHg 23%
    08:00 +21°C° 0 mm 0 m/s 650 mmHg 20%
    09:00 +25°C° 0 mm 0 m/s 652 mmHg 18%
    10:00 +28°C° 0 mm 1 m/s 652 mmHg 16%
    11:00 +29°C° 0 mm 1 m/s 651 mmHg 15%
    12:00 +30°C° 0 mm 2 m/s 651 mmHg 13%
    13:00 +30°C° 0 mm 2 m/s 650 mmHg 13%
    14:00 +29°C° 0 mm 2 m/s 650 mmHg 12%
    15:00 +29°C° 0 mm 3 m/s 649 mmHg 12%
    16:00 +26°C° 0 mm 2 m/s 648 mmHg 16%
    17:00 +23°C° 0 mm 2 m/s 648 mmHg 19%
    18:00 +20°C° 0 mm 1 m/s 647 mmHg 22%
    19:00 +19°C° 0 mm 1 m/s 647 mmHg 23%
    20:00 +18°C° 0 mm 1 m/s 648 mmHg 23%
    21:00 +16°C° 0 mm 1 m/s 648 mmHg 24%
    22:00 +16°C° 0 mm 1 m/s 648 mmHg 24%
    23:00 +16°C° 0 mm 1 m/s 648 mmHg 24%

    23 Fevereiro, Sexta-feira

    Tempo Temperatura Precipitação Vento Pressão Humidade
    00:00 +15°C° 0 mm 1 m/s 648 mmHg 24%
    01:00 +15°C° 0 mm 1 m/s 647 mmHg 24%
    02:00 +15°C° 0 mm 1 m/s 647 mmHg 25%
    03:00 +15°C° 0 mm 1 m/s 647 mmHg 26%
    04:00 +14°C° 0 mm 1 m/s 647 mmHg 26%
    05:00 +14°C° 0 mm 1 m/s 648 mmHg 27%
    06:00 +14°C° 0 mm 1 m/s 648 mmHg 28%
    07:00 +17°C° 0 mm 0 m/s 650 mmHg 25%
    08:00 +21°C° 0 mm 0 m/s 651 mmHg 22%
    09:00 +25°C° 0 mm 0 m/s 653 mmHg 20%
    10:00 +28°C° 0 mm 1 m/s 653 mmHg 19%
    11:00 +29°C° 0 mm 2 m/s 652 mmHg 18%
    12:00 +30°C° 0 mm 3 m/s 652 mmHg 18%
    13:00 +29°C° 0 mm 3 m/s 651 mmHg 18%
    14:00 +29°C° 0 mm 4 m/s 650 mmHg 18%
    15:00 +29°C° 0 mm 4 m/s 650 mmHg 18%
    16:00 +26°C° 0 mm 3 m/s 649 mmHg 22%
    17:00 +24°C° 0 mm 2 m/s 649 mmHg 26%
    18:00 +21°C° 0 mm 1 m/s 648 mmHg 30%
    19:00 +20°C° 0 mm 1 m/s 648 mmHg 30%
    20:00 +19°C° 0 mm 1 m/s 649 mmHg 31%
    21:00 +18°C° 0 mm 1 m/s 649 mmHg 32%
    22:00 +18°C° 0 mm 1 m/s 649 mmHg 32%
    23:00 +18°C° 0 mm 1 m/s 649 mmHg 32%

    24 Fevereiro, Sábado

    Tempo Temperatura Precipitação Vento Pressão Humidade
    00:00 +18°C° 0 mm 1 m/s 649 mmHg 33%
    01:00 +16°C° 0 mm 1 m/s 649 mmHg 33%
    02:00 +16°C° 0 mm 1 m/s 648 mmHg 34%
    03:00 +16°C° 0 mm 1 m/s 648 mmHg 35%
    04:00 +15°C° 0 mm 1 m/s 649 mmHg 36%
    05:00 +15°C° 0 mm 1 m/s 649 mmHg 36%
    06:00 +14°C° 0 mm 0 m/s 649 mmHg 37%
    07:00 +18°C° 0 mm 0 m/s 651 mmHg 33%
    08:00 +21°C° 0 mm 0 m/s 653 mmHg 29%
    09:00 +25°C° 0 mm 0 m/s 654 mmHg 24%
    10:00 +28°C° 0 mm 1 m/s 654 mmHg 23%
    11:00 +29°C° 0 mm 2 m/s 653 mmHg 22%
    12:00 +30°C° 0 mm 2 m/s 653 mmHg 21%
    13:00 +30°C° 0 mm 3 m/s 652 mmHg 21%
    14:00 +30°C° 0 mm 3 m/s 652 mmHg 20%
    15:00 +30°C° 0 mm 3 m/s 651 mmHg 20%
    16:00 +27°C° 0 mm 3 m/s 651 mmHg 25%
    17:00 +24°C° 0 mm 2 m/s 650 mmHg 29%
    18:00 +22°C° 0 mm 1 m/s 649 mmHg 33%
    19:00 +21°C° 0 mm 1 m/s 649 mmHg 35%
    20:00 +20°C° 0 mm 1 m/s 650 mmHg 36%
    21:00 +19°C° 0 mm 1 m/s 650 mmHg 37%
    22:00 +18°C° 0 mm 1 m/s 650 mmHg 38%
    23:00 +18°C° 0 mm 1 m/s 650 mmHg 38%
    Mostrar mais